Date,TemperatureHighF,TemperatureAvgF,TemperatureLowF,DewpointHighF,DewpointAvgF,DewpointLowF,HumidityHigh,HumidityAvg,HumidityLow,PressureMaxIn,PressureMinIn,WindSpeedMaxMPH,WindSpeedAvgMPH,GustSpeedMaxMPH,PrecipitationSumIn
2013-1-1,23.2,19.5,12.2,18.8,11.9,4.3,83,72,57,30.30,30.18,12,4,14,0.00
2013-1-2,29.8,19.5,9.9,16.8,9.8,2.0,79,66,49,30.27,30.06,8,1,9,0.00
2013-1-3,36.7,28.0,19.8,29.9,22.2,11.9,95,78,68,30.39,30.15,17,6,19,0.00
2013-1-4,36.3,25.3,14.7,24.6,17.5,7.8,81,72,60,30.39,30.21,17,3,19,0.00
2013-1-5,41.2,33.4,24.1,37.4,28.6,18.0,100,83,67,30.27,30.06,14,2,16,0.08
2013-1-6,38.8,30.4,24.6,35.7,24.2,18.3,93,78,63,30.36,30.03,29,10,33,1.03
2013-1-7,42.1,31.8,21.9,30.3,25.8,19.9,97,79,59,30.39,30.12,12,2,14,0.00
2013-1-8,48.4,37.9,29.8,36.1,30.3,26.4,90,75,52,30.18,30.03,9,3,11,1.08
2013-1-9,50.9,41.7,34.9,37.6,32.7,26.0,93,72,47,30.50,30.12,19,4,22,0.08
2013-1-10,53.2,41.1,34.5,53.0,36.9,26.7,100,86,63,30.47,29.79,15,4,17,0.42
2013-1-11,59.9,54.5,48.2,57.5,53.3,48.2,100,96,79,29.82,29.71,12,3,14,1.82
2013-1-12,54.3,44.5,30.7,53.9,41.0,30.4,100,88,64,30.03,29.76,21,7,24,0.17
2013-1-13,30.9,23.0,17.8,30.9,19.0,11.5,100,85,73,30.30,29.94,21,10,24,1.99
2013-1-14,26.6,19.9,16.0,17.1,14.0,9.9,88,78,63,30.47,30.06,12,3,14,0.00
2013-1-15,32.2,24.4,15.8,24.0,18.4,12.1,96,78,60,30.44,30.12,12,1,14,1.99
2013-1-16,39.4,31.2,19.4,30.3,23.4,15.7,92,74,58,30.18,29.85,18,3,20,0.04
2013-1-17,37.2,33.0,26.6,34.5,24.5,-14.6,99,72,44,30.47,30.09,24,6,27,2.03
2013-1-18,47.3,35.7,24.4,32.4,26.1,19.4,89,69,53,30.47,30.06,15,3,17,0.00
2013-1-19,55.9,45.2,37.0,39.0,33.2,25.8,78,63,48,30.09,29.79,29,7,33,2.07
2013-1-20,40.3,23.8,19.4,27.7,12.8,7.8,89,63,45,30.33,30.09,33,11,38,0.00
2013-1-21,19.4,13.4,8.1,13.1,0.6,-9.3,80,57,44,30.39,30.24,32,15,37,0.00
2013-1-22,18.0,12.0,5.7,2.4,-4.9,-11.5,54,46,44,30.41,30.27,17,7,19,0.00
2013-1-23,36.8,25.8,14.0,20.4,11.5,0.2,64,54,44,30.39,30.12,21,6,24,2.07
2013-1-24,28.0,20.6,11.6,10.9,6.2,0.0,70,53,44,30.59,30.30,19,5,24,0.00
2013-1-25,39.9,31.4,26.0,22.0,16.3,8.1,68,54,44,30.33,30.06,20,6,23,0.00
2013-1-26,34.7,26.1,16.3,17.8,12.1,7.0,68,56,42,30.36,30.24,20,3,23,0.00
2013-1-27,47.3,35.4,25.5,47.3,32.0,17.0,100,88,64,30.36,29.88,15,4,17,0.12
2013-1-28,63.8,55.3,47.1,63.8,55.2,0.0,100,100,99,29.97,29.82,12,2,13,0.00
2013-1-29,66.4,60.5,54.1,66.4,60.5,54.1,100,100,98,29.85,29.44,20,4,23,1.20
2013-1-30,54.3,36.9,22.8,54.0,34.3,13.0,100,90,62,29.91,29.29,43,14,49,0.09
2013-1-31,26.6,19.5,8.9,24.1,10.2,-1.4,95,67,54,30.33,29.88,36,17,41,0.00
2013-2-1,24.8,15.4,6.2,22.9,4.1,-4.0,93,61,47,30.39,30.21,29,9,33,0.00
2013-2-2,33.1,26.6,22.5,26.0,19.2,13.0,93,74,65,30.24,30.00,21,7,24,1.46
2013-2-3,32.7,27.6,22.8,27.4,19.5,12.7,100,73,46,30.15,30.00,31,8,35,0.00
2013-2-4,43.2,34.0,27.9,29.1,24.5,20.0,80,69,51,30.03,29.74,19,6,21,0.00
2013-2-5,46.2,35.4,27.1,32.9,28.6,23.5,93,77,57,30.15,29.85,24,6,27,0.00
2013-2-6,48.5,37.6,27.3,34.6,30.6,26.1,100,77,51,30.21,30.06,8,3,10,0.00
2013-2-7,43.0,39.3,36.8,43.0,37.8,32.7,100,94,80,30.12,29.82,14,5,16,0.37
2013-2-8,37.6,32.6,30.7,37.6,28.0,23.6,100,83,72,30.39,30.06,19,5,21,0.00
2013-2-9,39.5,35.2,31.5,36.4,28.9,25.0,89,78,62,30.39,30.06,0,0,0,0.00
2013-2-10,52.0,45.5,38.7,51.8,43.7,30.2,100,94,55,30.09,29.50,24,4,27,0.78
2013-2-11,45.1,38.8,31.8,31.7,27.0,22.6,87,63,51,30.18,29.71,40,12,45,0.00
2013-2-12,40.3,32.9,27.3,30.3,27.1,24.7,100,80,55,30.18,29.94,17,3,20,2.24
2013-2-13,50.7,39.0,30.2,33.8,30.7,27.9,100,74,43,29.97,29.74,19,3,22,0.00
2013-2-14,46.6,40.2,35.6,36.2,32.3,28.8,92,74,55,30.09,29.74,25,8,28,0.00
2013-2-15,37.0,31.1,24.6,33.0,18.2,3.6,91,60,25,30.30,29.97,29,11,33,0.00
2013-2-16,32.7,24.8,17.4,17.1,12.6,6.6,73,60,44,30.27,30.06,25,8,28,0.00
2013-2-17,81.5,29.6,16.5,24.2,17.7,9.2,77,62,43,30.24,29.94,14,4,16,0.00
2013-2-18,58.5,44.6,30.5,50.3,37.1,23.0,100,76,58,30.24,29.53,36,8,41,0.17
2013-2-19,30.7,25.4,21.7,24.2,14.5,8.7,77,63,53,30.27,29.85,42,20,47,0.00
2013-2-20,66.6,22.0,10.8,16.8,9.3,-9.8,79,58,45,30.39,30.24,25,6,28,0.00
2013-2-21,34.0,24.9,18.3,34.0,20.9,14.8,100,85,69,30.39,29.82,26,5,30,0.00
2013-2-22,38.5,33.9,28.6,36.5,29.7,21.0,100,85,63,30.03,29.76,17,5,19,0.00
2013-2-23,33.6,27.3,22.6,21.0,18.7,16.2,81,70,56,30.06,29.97,12,3,14,0.00
2013-2-24,42.4,31.1,19.8,28.4,22.5,15.7,89,72,51,30.12,30.00,9,2,10,0.00
2013-2-25,46.8,37.3,28.6,35.1,30.8,26.6,97,78,56,30.15,29.79,17,5,20,0.04
2013-2-26,38.1,35.6,34.3,36.3,34.9,29.7,100,98,74,29.85,29.38,25,7,28,0.13
2013-2-27,36.0,34.3,33.1,35.2,34.0,32.6,100,99,89,29.85,29.62,19,12,22,0.00
2013-2-28,37.8,35.1,34.2,36.3,34.5,32.4,100,98,82,30.09,29.85,17,9,19,0.08
2013-3-1,34.3,31.4,27.3,34.3,28.9,24.2,100,91,73,30.24,30.06,15,6,17,0.21
2013-3-2,33.1,28.5,22.8,24.2,17.8,14.1,88,65,48,30.24,30.15,24,9,27,0.21
2013-3-3,36.8,28.7,18.3,24.8,18.7,14.2,87,67,44,30.24,30.06,9,2,10,0.00
2013-3-4,40.5,35.8,31.6,31.0,28.4,0.0,96,75,62,30.12,29.82,23,6,26,0.21
2013-3-5,37.2,34.6,31.8,36.0,32.4,24.0,100,92,68,30.09,29.79,34,11,38,0.00
2013-3-6,32.7,30.5,27.3,28.7,24.4,21.8,89,78,66,30.39,30.06,24,11,27,0.00
2013-3-7,41.9,34.0,28.2,30.2,26.4,22.5,90,74,54,30.39,30.30,7,3,8,0.00
2013-3-8,49.6,39.6,29.5,37.0,32.3,28.2,97,77,55,30.44,30.24,11,3,12,0.00
2013-3-9,55.9,46.6,40.1,46.0,39.6,34.1,100,78,56,30.24,29.76,8,3,9,0.04
2013-3-10,55.2,52.5,49.6,55.2,51.5,39.4,100,97,58,29.79,29.56,12,2,13,1.24
2013-3-11,51.2,38.5,34.2,51.2,36.5,28.0,100,93,77,29.97,29.68,21,6,24,0.00
2013-3-12,43.5,36.1,29.6,34.5,27.0,18.6,100,70,51,30.18,29.94,34,14,38,0.00
2013-3-13,38.7,31.1,25.5,21.5,18.8,1.6,81,61,21,30.39,30.18,20,16,22,1.49
2013-3-14,50.2,37.8,28.0,33.5,26.8,18.8,87,66,44,30.39,30.06,19,7,21,1.49
2013-3-15,62.2,46.9,32.7,47.2,38.4,30.0,97,74,46,30.12,29.65,8,1,9,1.49
2013-3-16,49.3,41.4,35.6,46.4,36.0,28.5,100,82,58,30.15,29.65,23,4,26,0.00
2013-3-17,43.3,37.3,32.9,32.5,28.1,24.5,85,70,54,30.24,29.88,19,5,22,1.49
2013-3-18,48.4,37.8,29.3,40.7,33.2,20.2,100,85,44,30.00,29.68,33,10,38,1.58
2013-3-19,44.6,33.6,25.0,22.1,13.1,0.0,72,46,19,30.18,29.97,27,12,31,0.00
2013-3-20,32.7,27.3,20.8,22.0,11.4,1.3,73,52,30,30.21,30.06,37,16,42,0.00
2013-3-21,38.8,27.5,17.4,15.5,11.0,7.5,67,51,32,30.12,30.00,20,4,22,0.00
2013-3-22,47.1,35.2,22.3,25.4,16.3,6.2,79,49,20,30.09,30.00,12,2,14,0.00
2013-3-23,53.6,43.3,35.6,28.1,24.0,11.2,67,48,24,30.09,29.91,15,4,17,0.00
2013-3-24,38.3,33.0,31.5,34.0,32.3,24.9,100,98,59,30.00,29.62,17,4,19,0.00
2013-3-25,37.6,33.3,29.6,33.2,30.0,26.4,100,88,65,30.15,29.76,26,8,29,0.00
2013-3-26,39.7,34.8,31.8,29.9,27.2,22.4,90,75,52,30.27,30.15,17,9,19,0.00
2013-3-27,45.8,38.4,32.3,27.5,23.2,5.3,77,56,20,30.39,30.30,9,5,10,0.00
2013-3-28,50.0,38.9,26.2,33.4,26.7,20.9,85,63,43,30.39,30.27,8,3,10,0.00
2013-3-29,63.3,47.7,37.2,38.2,34.0,29.1,81,61,34,30.33,30.18,12,2,14,0.83
2013-3-30,58.5,48.8,37.9,48.6,41.3,33.8,99,76,54,30.24,29.94,12,2,14,0.08
2013-3-31,66.2,54.1,42.8,51.2,44.4,17.1,100,73,27,29.97,29.85,24,8,27,0.00
2013-4-1,50.7,40.7,32.2,30.1,19.5,1.7,68,46,18,30.24,29.97,22,8,26,0.00
2013-4-2,53.2,37.4,25.5,20.8,13.8,3.6,68,42,17,30.36,30.24,15,5,18,0.00
2013-4-3,59.7,40.7,26.8,22.7,15.7,3.9,64,40,16,30.44,30.30,14,2,15,0.00
2013-4-4,66.0,45.8,28.6,26.2,17.4,4.1,63,37,14,30.30,30.03,12,2,14,0.00
2013-4-5,68.5,51.0,36.6,33.6,25.3,12.8,75,41,15,30.24,30.03,15,3,17,0.00
2013-4-6,74.7,58.9,45.3,43.6,33.8,22.5,58,40,18,30.09,29.71,20,4,23,0.00
2013-4-7,78.8,61.4,44.8,52.1,40.4,29.0,82,51,18,30.00,29.79,11,3,12,0.00
2013-4-8,79.0,63.3,56.8,62.1,56.6,52.0,100,81,46,29.91,29.71,17,4,19,0.00
2013-4-9,84.2,67.7,57.7,60.5,57.9,54.5,100,74,40,29.91,29.85,15,3,17,0.00
2013-4-10,68.4,55.0,45.9,67.3,54.0,45.9,100,97,81,29.94,29.68,32,4,36,1.16
2013-4-11,52.0,47.3,39.4,51.8,44.2,29.0,100,89,67,29.74,29.65,19,7,22,0.05
2013-4-12,45.0,41.6,39.0,35.6,33.2,29.7,80,72,64,29.97,29.71,23,8,26,0.00
2013-4-13,54.5,44.2,37.4,36.7,31.1,24.6,83,61,40,30.06,29.94,25,8,28,0.00
2013-4-14,76.8,61.8,47.1,52.3,45.8,36.2,94,59,31,29.97,29.65,14,4,16,0.00
2013-4-15,64.8,57.0,47.8,59.7,53.5,47.6,100,89,56,30.00,29.74,13,4,16,0.24
2013-4-16,53.6,46.4,43.2,47.8,44.4,38.5,100,94,61,30.21,29.94,14,5,16,0.38
2013-4-17,66.4,54.4,46.9,66.4,52.4,36.6,100,94,64,30.18,29.71,21,6,24,0.00
2013-4-18,65.1,56.2,40.8,65.1,54.6,30.5,100,95,67,29.74,29.53,29,6,33,1.24
2013-4-19,45.1,40.4,35.6,34.6,28.7,25.0,80,63,49,30.06,29.68,33,14,36,0.00
2013-4-20,59.4,37.0,30.2,31.5,27.9,10.1,90,74,16,30.39,30.06,13,4,14,0.00
2013-4-21,60.3,48.4,37.6,38.1,33.9,12.6,80,58,42,30.47,30.27,19,5,21,0.00
2013-4-22,69.2,55.7,39.7,48.8,37.9,29.9,80,54,25,30.30,30.03,16,3,17,0.00
2013-4-23,56.6,48.6,38.2,52.8,46.1,38.2,100,92,77,30.06,29.94,17,4,19,0.37
2013-4-24,51.3,42.1,35.9,38.9,33.4,24.0,100,75,36,30.21,30.00,25,8,25,0.08
2013-4-25,58.5,47.6,37.7,35.0,29.9,16.6,82,53,25,30.36,30.15,26,7,30,0.08
2013-4-26,66.6,53.6,40.9,46.2,40.2,31.9,78,61,44,30.39,30.27,16,3,18,0.08
2013-4-27,59.3,53.1,45.8,53.4,47.9,41.3,100,84,53,30.30,29.97,13,2,15,0.13
2013-4-28,65.2,56.2,52.1,58.0,53.0,48.6,100,90,56,29.97,29.91,18,4,20,0.08
2013-4-29,77.3,62.2,45.8,58.5,53.1,45.8,100,76,45,29.97,29.79,24,3,27,0.08
2013-4-30,85.9,72.2,60.5,61.6,56.0,39.7,100,62,23,30.00,29.79,16,4,18,0.08
2013-5-1,83.7,73.1,58.2,58.9,51.5,35.3,91,51,18,30.15,30.00,16,3,18,0.00
2013-5-2,72.4,60.8,46.7,59.6,53.2,42.5,100,77,52,30.21,30.09,22,6,24,0.13
2013-5-3,58.5,50.3,45.9,58.4,50.3,45.8,100,100,100,30.09,29.79,12,3,13,1.32
2013-5-4,58.9,53.3,48.5,58.9,53.3,48.1,100,100,100,30.03,29.82,8,2,9,0.33
2013-5-5,68.6,58.9,49.7,60.9,54.9,49.3,100,88,53,30.03,29.91,15,2,17,0.04
2013-5-6,72.8,63.1,51.9,56.9,50.7,26.7,100,69,18,30.03,29.97,16,3,18,0.00
2013-5-7,78.0,67.8,57.1,57.1,43.8,18.8,90,50,12,30.06,30.00,12,2,13,0.00
2013-5-8,81.4,68.0,54.0,57.4,48.1,34.6,82,52,19,30.06,29.97,8,1,10,0.00
2013-5-9,68.1,63.6,60.5,66.8,62.4,55.3,100,96,75,30.03,29.82,11,2,13,0.79
2013-5-10,61.4,56.6,51.9,61.1,55.9,50.7,100,98,85,30.00,29.82,13,4,15,0.00
2013-5-11,61.8,54.3,45.2,56.0,38.3,12.1,100,63,17,30.12,29.97,26,8,29,0.00
2013-5-12,57.8,48.7,38.7,35.2,29.2,17.0,77,49,24,30.21,30.12,22,7,24,0.00
2013-5-13,69.0,55.9,40.5,44.3,35.5,21.5,82,51,19,30.21,30.03,11,2,13,0.00
2013-5-14,87.2,70.0,54.9,61.7,51.6,41.5,79,54,33,30.03,29.79,12,4,14,0.00
2013-5-15,85.0,76.7,68.6,61.1,55.0,49.4,71,48,39,29.91,29.82,18,6,20,0.00
2013-5-16,82.5,72.2,64.1,62.1,56.7,50.4,77,59,41,29.97,29.88,13,2,15,0.00
2013-5-17,79.6,70.3,60.7,66.2,59.8,53.4,98,72,46,30.00,29.94,16,2,18,0.00
2013-5-18,79.4,71.2,63.0,66.2,62.0,57.5,100,75,49,30.03,29.91,6,2,7,0.00
2013-5-19,87.2,74.5,64.7,73.0,66.2,61.7,100,78,50,29.97,29.76,16,3,18,0.00
2013-5-20,83.2,72.6,63.0,71.2,62.2,52.4,100,73,38,29.88,29.76,28,5,32,1.00
2013-5-21,79.8,70.5,62.7,67.5,63.9,58.8,100,82,55,29.85,29.71,15,4,17,0.12
2013-5-22,72.2,66.6,61.1,67.7,58.7,50.5,100,78,49,29.85,29.65,14,4,16,0.05
2013-5-23,62.1,58.7,52.4,59.4,52.9,46.1,100,82,59,30.24,29.82,13,5,15,0.04
2013-5-24,66.5,55.3,43.1,49.2,35.2,16.5,97,56,16,30.42,30.24,12,2,13,0.00
2013-5-25,55.7,53.4,51.7,55.3,51.9,43.0,100,95,65,30.39,30.21,12,2,14,0.00
2013-5-26,65.6,57.6,51.9,64.5,57.1,51.9,100,98,84,30.24,30.00,10,2,11,1.22
2013-5-27,69.9,63.6,59.3,69.9,63.6,59.1,100,100,100,30.06,29.76,10,2,11,1.66
2013-5-28,77.8,69.1,62.7,75.6,68.4,62.7,100,98,86,29.91,29.79,19,3,22,0.12
2013-5-29,83.9,77.5,65.4,71.1,67.2,62.4,100,72,53,29.97,29.85,16,3,18,0.12
2013-5-30,82.7,73.2,64.1,72.1,67.2,57.5,100,83,58,29.94,29.82,22,3,24,0.12
2013-5-31,73.8,68.1,63.4,73.8,67.9,63.4,100,99,85,29.94,29.71,13,3,15,1.37
2013-6-1,74.2,66.9,62.7,71.1,64.0,54.0,100,91,63,29.85,29.65,16,3,18,0.33
2013-6-2,63.6,60.7,58.4,61.6,57.2,52.2,100,88,73,30.03,29.82,11,2,13,0.00
2013-6-3,64.8,57.6,53.5,57.0,51.7,42.9,100,83,46,30.12,30.00,9,0,11,0.00
2013-6-4,72.6,66.2,54.0,57.6,51.4,46.8,86,60,45,30.09,30.00,11,1,13,0.00
2013-6-5,77.6,68.2,57.6,62.5,56.6,50.6,100,70,42,30.03,29.88,8,0,9,0.00
2013-6-6,72.0,66.5,60.5,60.8,55.5,52.0,86,68,54,29.91,29.82,9,2,10,0.00
2013-6-7,72.4,64.8,55.8,59.7,51.0,47.3,90,63,43,29.94,29.88,12,2,14,0.00
2013-6-8,77.4,66.7,54.6,64.7,56.2,47.0,97,70,52,29.97,29.91,11,1,12,0.00
2013-6-9,78.2,68.3,61.8,69.8,64.8,60.2,100,89,72,29.97,29.79,16,2,18,0.00
2013-6-10,75.8,68.4,62.9,70.1,66.2,62.9,100,93,78,29.88,29.76,12,2,14,0.00
2013-6-11,86.3,80.6,75.1,79.6,75.4,72.9,96,85,73,29.94,29.85,11,2,13,0.00
2013-6-12,92.2,80.1,71.1,82.1,75.9,71.1,100,88,66,29.94,29.71,21,3,23,0.00
2013-6-13,82.3,74.8,67.9,76.4,65.7,59.1,99,75,53,30.03,29.74,20,5,22,0.00
2013-6-14,68.1,63.2,59.6,62.2,59.4,57.5,95,88,80,30.12,29.97,7,0,8,0.00
2013-6-15,78.2,70.9,66.6,75.8,70.1,66.5,100,98,82,30.12,29.88,13,1,15,0.58
2013-6-16,80.3,72.8,66.3,77.9,72.0,66.3,100,98,89,30.06,29.91,8,0,10,0.00
2013-6-17,83.6,75.1,67.5,78.2,72.4,67.5,100,92,75,30.00,29.85,6,0,7,0.00
2013-6-18,81.4,73.3,64.8,77.3,69.7,62.4,100,89,70,30.03,29.88,8,1,10,0.00
2013-6-19,82.3,71.1,59.4,72.8,65.0,57.2,94,82,63,30.15,30.00,10,0,11,0.00
2013-6-20,87.5,78.1,66.3,76.5,71.1,62.9,100,80,61,30.15,30.00,8,2,11,0.00
2013-6-21,89.0,76.9,70.8,80.8,73.9,68.2,100,91,75,30.12,29.97,22,2,25,0.91
2013-6-22,82.7,74.9,68.8,81.7,74.3,68.8,100,98,93,30.09,30.00,16,1,18,0.91
2013-6-23,86.1,73.1,68.1,80.5,71.9,68.1,100,96,79,30.09,29.88,21,2,23,0.05
2013-6-24,86.3,73.2,67.7,83.0,72.6,67.7,100,98,88,30.12,29.88,20,0,22,0.28
2013-6-25,85.5,74.6,70.2,83.1,74.4,70.2,100,100,91,30.00,29.82,14,1,16,0.46
2013-6-26,81.2,74.3,69.7,81.2,74.3,69.7,100,100,100,29.88,29.71,8,1,10,0.29
2013-6-27,87.3,78.7,73.1,79.8,75.3,71.2,100,90,68,29.88,29.76,13,3,15,0.29
2013-6-28,82.5,76.0,69.3,72.9,68.3,63.0,100,79,53,29.85,29.65,20,5,22,0.29
2013-6-29,74.2,68.2,64.8,71.1,67.1,64.1,100,96,82,29.79,29.65,18,2,21,0.29
2013-6-30,74.7,68.1,61.8,71.4,65.9,60.1,100,93,79,30.00,29.79,12,1,14,0.29
2013-7-1,77.3,69.4,62.0,64.3,59.8,56.5,90,72,56,30.03,29.97,17,2,19,0.29
2013-7-2,71.5,66.0,61.8,64.3,60.4,58.1,91,82,68,30.09,30.00,12,1,13,0.29
2013-7-3,77.1,67.6,58.7,67.0,62.8,58.7,100,86,66,30.15,30.00,8,1,9,0.29
2013-7-4,83.6,72.9,63.2,73.9,67.7,63.2,100,85,68,30.15,30.00,11,1,13,0.29
2013-7-5,83.2,73.5,64.1,75.1,69.3,62.7,100,87,71,30.12,30.00,8,1,10,0.29
2013-7-6,82.3,73.9,66.1,77.0,71.9,66.1,100,94,80,30.09,29.94,9,1,11,0.29
2013-7-7,87.7,77.1,66.8,81.2,74.1,66.8,100,91,75,30.06,29.94,11,1,13,0.29
2013-7-8,85.5,78.3,75.1,83.0,77.4,73.3,100,97,91,30.09,29.97,11,1,12,0.29
2013-7-9,88.2,80.8,74.9,84.6,79.5,74.9,100,96,86,30.03,29.91,12,0,13,0.29
2013-7-10,84.1,77.6,70.6,81.1,75.3,68.7,100,93,74,30.00,29.82,12,2,16,0.41
2013-7-11,80.3,72.3,64.5,72.2,67.9,63.6,100,87,68,30.12,30.00,9,0,11,0.05
2013-7-12,81.0,71.0,60.5,68.7,63.9,-13.2,100,80,61,30.18,30.06,9,1,11,0.00
2013-7-13,82.3,72.8,62.7,73.2,68.1,62.7,100,86,71,30.15,30.03,8,1,10,0.00
2013-7-14,86.6,76.5,65.9,79.0,73.5,65.9,100,91,76,30.18,30.09,8,1,10,0.00
2013-7-15,86.8,79.2,71.3,84.0,78.0,71.3,100,96,88,30.27,30.15,6,0,7,0.00
2013-7-16,88.6,80.5,72.6,83.2,77.9,72.6,100,92,78,30.33,30.21,9,0,11,0.00
2013-7-17,90.8,81.6,72.8,84.8,79.0,72.8,100,92,77,30.33,30.18,0,0,0,0.00
2013-7-18,90.6,82.6,74.2,85.3,79.9,74.2,100,92,77,30.21,30.00,8,0,10,0.00
2013-7-19,91.5,82.9,75.3,85.5,79.7,75.3,100,91,74,30.00,29.79,9,0,11,0.00
2013-7-20,85.7,79.6,73.1,79.8,76.1,70.7,100,89,75,29.94,29.82,8,1,10,0.00
2013-7-21,80.1,74.6,69.2,78.9,74.2,69.2,100,99,93,29.94,29.82,5,0,6,0.20
2013-7-22,85.0,75.6,66.3,80.5,74.2,66.3,100,96,82,29.88,29.76,8,0,9,0.00
2013-7-23,82.8,74.4,67.7,76.8,71.1,65.5,100,90,76,29.91,29.76,12,2,14,0.00
2013-7-24,75.5,67.9,59.4,65.7,62.7,59.4,100,84,67,30.09,29.85,10,1,11,0.00
2013-7-25,78.0,69.1,57.8,68.9,63.9,56.6,100,84,66,30.18,29.47,8,0,9,0.00
2013-7-26,73.5,66.9,62.3,73.3,66.7,62.0,100,99,92,30.09,29.88,9,0,10,0.96
2013-7-27,67.7,62.3,56.2,64.8,58.5,53.9,100,88,63,30.06,29.65,20,3,22,0.00
2013-7-28,72.2,63.3,52.2,62.3,57.7,51.8,100,83,64,30.12,29.29,16,3,18,0.00
2013-7-29,75.8,66.3,55.8,68.9,62.9,55.8,100,89,70,30.21,30.12,0,0,0,0.00
2013-7-30,69.3,66.8,65.4,69.3,66.4,64.7,100,98,94,30.21,30.06,5,0,6,0.17
2013-7-31,74.7,70.6,67.2,74.6,70.6,67.2,100,100,98,30.09,30.00,6,0,6,0.00
2013-8-1,80.0,71.8,64.1,73.4,68.6,64.1,100,90,71,30.12,30.00,10,1,11,0.00
2013-8-2,81.2,72.0,66.1,78.2,71.4,66.1,100,98,89,30.00,29.91,15,1,17,0.17
2013-8-3,79.8,72.7,66.3,73.8,68.9,63.9,100,89,69,30.15,29.94,8,1,10,0.00
2013-8-4,78.3,69.5,60.2,69.6,65.7,60.2,100,88,69,30.21,30.09,7,0,8,0.00
2013-8-5,75.8,68.5,61.1,72.7,66.9,61.1,100,95,82,30.15,29.88,19,2,22,0.00
2013-8-6,84.3,73.5,67.9,80.9,72.9,67.9,100,98,88,30.15,29.82,8,0,10,0.13
2013-8-7,83.6,75.1,69.9,82.9,75.1,69.9,100,100,97,29.94,29.79,9,0,11,0.20
2013-8-8,79.4,72.7,67.2,78.0,72.3,67.2,100,99,91,30.00,29.91,7,0,8,0.13
2013-8-9,78.9,70.7,62.0,73.2,68.9,62.0,100,95,80,30.09,30.00,7,0,8,0.13
2013-8-10,79.2,72.1,65.2,71.7,68.0,62.5,100,88,71,30.15,30.06,9,1,11,0.13
2013-8-11,80.1,70.5,60.3,72.5,66.9,60.2,100,89,73,30.21,30.06,7,0,8,0.13
2013-8-12,80.3,72.7,65.2,77.9,71.9,65.2,100,97,91,30.09,29.88,9,0,11,0.13
2013-8-13,74.7,67.2,58.7,70.3,64.2,54.9,100,91,72,30.18,29.94,8,1,10,0.13
2013-8-14,72.0,60.7,33.2,63.0,57.0,-13.9,100,88,12,30.30,30.18,9,0,11,0.13
2013-8-15,73.5,64.4,56.4,64.3,59.8,55.8,100,86,67,30.27,30.12,8,0,10,0.00
2013-8-16,76.5,67.7,61.1,67.0,62.9,59.6,100,85,66,30.24,30.15,10,1,11,0.00
2013-8-17,76.5,66.9,58.0,67.7,62.5,58.0,100,87,64,30.27,30.15,11,1,13,0.00
2013-8-18,79.4,68.9,58.4,71.3,65.5,58.4,100,90,73,30.27,30.12,8,1,9,0.00
2013-8-19,81.2,71.8,62.5,75.2,69.4,62.5,100,92,77,30.18,30.03,8,0,9,0.00
2013-8-20,83.6,73.7,64.3,76.6,70.8,64.3,100,92,74,30.18,30.00,8,1,10,0.00
2013-8-21,85.4,73.3,65.9,78.6,71.2,65.9,100,94,73,30.18,30.00,9,1,11,0.00
2013-8-22,84.6,75.2,68.6,81.0,73.7,-13.9,100,95,86,30.09,30.00,11,0,13,0.00
2013-8-23,83.6,74.4,66.5,77.5,72.0,66.5,100,93,77,30.15,30.06,8,1,10,0.00
2013-8-24,84.3,73.8,63.8,78.6,71.4,63.8,100,93,78,30.27,30.12,3,0,3,0.00
2013-8-25,85.4,74.5,64.5,77.3,71.3,64.5,100,90,71,30.30,30.18,0,0,0,0.00
2013-8-26,87.7,77.4,67.9,82.3,75.2,67.6,100,93,75,30.21,30.03,8,1,9,0.00
2013-8-27,87.7,78.8,71.0,81.2,75.7,71.0,100,91,73,30.06,29.91,15,1,17,0.00
2013-8-28,90.6,80.9,71.9,80.7,75.7,69.9,98,85,67,30.03,29.91,12,2,14,0.00
2013-8-29,85.4,78.2,71.7,82.4,77.4,71.7,100,97,89,30.06,29.94,7,0,8,0.00
2013-8-30,91.5,80.7,71.0,84.9,78.2,71.0,100,93,74,30.00,29.76,11,1,12,0.00
2013-8-31,92.6,82.1,71.9,84.1,76.7,68.0,100,84,71,29.85,29.68,8,2,10,0.00
2013-9-1,85.6,77.3,71.7,80.4,74.5,68.9,100,91,77,29.85,29.76,8,1,9,0.00
2013-9-2,80.4,72.4,64.4,69.8,65.1,58.6,95,79,61,30.00,29.82,11,2,12,0.00
2013-9-3,76.8,67.9,59.4,65.5,61.4,56.9,97,81,62,30.12,30.00,7,0,8,0.00
2013-9-4,80.4,69.5,58.5,68.1,62.8,56.9,98,81,58,30.24,30.06,6,0,7,0.00
2013-9-5,83.8,70.8,61.7,70.8,64.8,59.4,96,82,60,30.24,30.12,8,0,9,0.00
2013-9-6,84.4,75.2,65.7,72.7,68.2,64.2,97,80,63,30.21,29.56,10,1,11,0.00
2013-9-7,86.4,75.2,65.3,73.8,69.5,63.8,97,83,62,30.09,29.38,12,1,13,0.00
2013-9-8,83.8,76.3,71.2,77.6,73.5,69.7,100,91,79,30.00,29.88,8,0,10,0.17
2013-9-9,90.5,79.9,71.4,80.6,76.1,71.4,100,89,70,29.97,29.82,12,0,13,0.00
2013-9-10,94.3,80.1,71.6,79.1,72.9,69.2,95,80,49,30.09,29.94,12,1,14,0.00
2013-9-11,91.9,79.3,68.9,73.6,70.3,66.8,94,76,47,30.12,30.00,13,2,15,0.00
2013-9-12,84.4,72.3,62.2,72.0,63.7,50.0,100,78,39,30.09,29.97,16,3,18,0.12
2013-9-13,70.5,61.8,53.8,54.8,49.6,43.4,96,67,39,30.21,30.09,12,2,14,0.25
2013-9-14,71.2,59.5,48.0,53.9,49.2,44.1,90,70,48,30.27,30.06,10,1,11,0.00
2013-9-15,73.9,63.9,55.0,65.8,57.4,48.5,96,80,62,30.21,30.00,15,2,17,0.04
2013-9-16,69.8,62.2,57.4,61.5,58.4,52.3,98,88,69,30.36,30.21,12,1,14,0.00
2013-9-17,73.9,63.5,54.1,64.3,58.3,51.5,94,84,69,30.36,30.12,12,1,13,0.00
2013-9-18,83.7,72.6,63.5,74.2,68.1,59.9,97,86,72,30.15,29.94,16,2,18,0.00
2013-9-19,89.1,79.2,71.8,77.1,73.1,68.4,97,83,63,30.00,29.76,17,3,19,0.00
2013-9-20,74.3,67.9,57.7,71.1,65.1,53.8,100,91,75,29.97,29.88,9,2,11,0.21
2013-9-21,69.1,60.0,51.8,58.3,53.8,51.1,100,81,58,30.03,29.94,13,2,15,0.00
2013-9-22,70.5,59.8,49.5,57.4,52.3,48.0,98,78,53,30.15,30.00,8,0,9,0.00
2013-9-23,73.2,60.8,49.5,58.4,51.7,46.8,93,74,48,30.12,30.00,12,1,14,0.00
2013-9-24,75.7,63.3,51.8,65.0,57.2,48.1,94,81,68,30.06,29.91,9,1,11,0.00
2013-9-25,78.4,67.7,57.6,67.8,61.1,54.5,94,80,63,29.97,29.88,7,0,8,0.00
2013-9-26,81.0,68.3,57.9,67.9,60.2,53.8,91,76,57,30.09,29.97,9,1,11,0.00
2013-9-27,79.9,67.0,55.2,65.6,56.8,51.4,91,71,47,30.18,30.00,14,1,16,0.50
2013-9-28,81.1,69.7,58.6,68.0,62.0,54.8,96,77,60,30.12,29.94,18,3,21,0.25
2013-9-29,69.8,61.6,54.1,61.1,54.2,47.8,100,79,48,30.15,30.00,10,1,11,0.00
2013-9-30,74.8,62.2,50.7,61.7,55.9,48.2,99,81,56,30.09,29.91,12,1,14,0.00
2013-10-1,77.4,69.5,62.2,71.8,67.7,60.6,100,94,82,30.33,29.94,12,1,14,0.75
2013-10-2,80.1,71.8,66.0,73.9,69.5,66.0,100,93,76,30.09,30.00,8,0,10,0.00
2013-10-3,81.9,70.7,65.1,75.0,69.6,65.1,100,96,75,30.00,29.85,21,2,23,0.04
2013-10-4,82.8,73.7,65.7,77.3,71.1,65.7,100,92,74,30.03,29.88,12,2,14,0.26
2013-10-5,77.0,71.3,59.2,74.8,69.2,56.7,100,93,80,30.00,29.82,11,2,13,0.00
2013-10-6,59.2,52.8,47.5,57.2,48.2,43.1,98,85,67,29.94,29.82,14,2,16,0.12
2013-10-7,67.6,55.8,46.9,54.8,50.9,46.5,100,85,57,30.18,29.91,15,3,17,0.00
2013-10-8,73.0,60.7,50.0,57.9,52.1,48.1,96,75,50,30.27,30.15,13,1,14,0.00
2013-10-9,70.9,59.3,48.9,56.1,51.2,46.4,96,76,53,30.27,30.03,9,1,10,0.12
2013-10-10,75.4,63.0,53.1,65.3,57.4,49.4,98,83,58,30.21,30.06,13,1,14,0.00
2013-10-11,76.3,65.8,56.8,65.6,59.5,56.3,100,82,57,30.12,29.94,20,2,22,0.05
2013-10-12,71.8,64.6,55.6,66.3,58.2,44.7,100,81,54,30.27,30.00,15,2,16,0.00
2013-10-13,66.6,56.0,47.5,48.1,43.2,37.5,85,64,42,30.47,30.27,9,1,13,0.00
2013-10-14,65.8,54.2,42.4,47.9,43.2,36.4,87,67,49,30.47,30.12,15,1,16,0.00
2013-10-15,67.3,60.7,52.9,66.6,57.1,47.7,100,88,70,30.12,29.85,13,2,14,0.20
2013-10-16,54.7,51.1,47.1,47.4,45.5,43.5,90,81,73,30.09,29.97,15,3,16,0.00
2013-10-17,61.2,52.5,48.0,49.2,46.1,42.7,98,80,54,30.24,29.68,16,2,18,0.25
2013-10-18,55.8,49.2,44.2,45.8,42.8,39.9,93,79,60,30.09,28.97,14,4,16,0.00
2013-10-19,55.2,47.7,41.0,44.8,41.7,39.7,97,81,57,30.06,29.03,16,3,18,0.00
2013-10-20,68.2,54.8,41.9,50.8,44.4,38.3,90,70,48,30.00,29.76,22,2,24,0.00
2013-10-21,57.9,49.2,37.6,46.9,39.0,29.3,77,68,51,30.12,29.91,17,4,19,0.00
2013-10-22,47.7,41.4,36.1,47.0,38.1,30.1,98,88,74,30.12,29.82,13,2,14,0.00
2013-10-23,46.2,39.6,34.9,38.8,35.3,31.7,99,86,59,30.18,30.06,14,5,15,0.00
2013-10-24,42.1,38.1,32.2,36.2,28.5,24.7,90,69,54,30.44,30.15,19,5,21,0.00
2013-10-25,52.5,40.3,29.5,37.2,30.0,24.1,85,68,49,30.50,30.21,14,2,16,0.00
2013-10-26,58.6,47.4,39.6,40.2,33.0,28.7,68,58,42,30.21,30.00,25,6,27,0.00
2013-10-27,56.3,43.8,33.6,37.6,31.9,27.0,79,64,46,30.21,30.03,13,1,14,0.00
2013-10-28,63.0,48.3,37.0,43.1,35.3,29.7,78,62,43,30.33,30.12,11,1,12,0.00
2013-10-29,57.7,48.8,41.5,54.0,43.5,35.5,99,82,62,30.36,30.12,9,0,10,0.00
2013-10-30,65.7,60.2,53.8,65.7,60.2,53.7,100,100,99,30.15,29.26,23,2,25,0.00
2013-10-31,64.8,58.4,48.0,64.8,58.4,47.8,100,100,99,29.85,29.00,24,6,26,0.00
2013-11-1,53.6,48.6,44.6,48.6,46.1,42.4,100,91,74,29.85,24.57,18,4,20,0.00
2013-11-2,52.3,45.6,39.6,44.8,40.1,34.2,100,82,58,30.24,29.85,17,4,19,0.00
2013-11-3,54.5,44.2,34.5,42.4,37.1,32.2,96,77,55,30.33,30.18,11,1,12,0.00
2013-11-4,56.7,52.1,45.0,48.5,42.0,28.9,82,70,36,30.27,30.12,24,4,26,0.08
2013-11-5,63.5,55.4,52.3,60.5,52.3,48.5,100,90,74,30.30,30.03,18,3,20,0.17
2013-11-6,58.5,48.8,35.8,58.5,48.1,33.4,100,97,90,30.33,29.88,30,7,34,0.53
2013-11-7,51.8,39.8,32.5,42.2,33.5,30.1,94,79,50,30.39,30.24,28,3,31,0.45
2013-11-8,51.8,42.9,31.1,38.5,34.1,28.5,95,73,55,30.41,30.06,23,2,25,0.45
2013-11-9,64.4,52.3,45.3,45.0,39.1,34.3,80,62,40,30.30,30.03,29,7,32,0.45
2013-11-10,49.5,41.0,36.1,36.2,32.3,30.1,80,71,54,30.44,30.27,15,4,16,0.05
2013-11-11,56.7,43.0,27.3,45.4,37.0,24.8,100,80,64,30.59,30.12,28,4,31,0.00
2013-11-12,32.2,25.0,20.7,24.5,18.8,16.0,89,77,61,30.80,30.59,18,4,20,0.00
2013-11-13,42.3,30.8,20.1,25.4,20.4,15.2,82,66,47,30.74,30.30,9,1,14,0.00
2013-11-14,53.8,39.8,30.2,31.8,25.1,19.9,66,56,41,30.30,30.03,16,2,18,0.04
2013-11-15,54.0,45.4,39.0,43.3,34.9,27.1,90,67,56,30.09,29.94,11,1,12,0.04
2013-11-16,60.6,54.0,46.2,59.5,52.3,43.0,99,94,85,30.00,29.65,22,4,25,0.08
2013-11-17,71.2,61.0,46.6,67.9,57.8,42.0,100,90,61,30.00,29.32,55,9,62,0.50
2013-11-18,49.8,43.0,34.5,42.5,34.4,27.1,90,73,53,30.39,30.00,35,10,39,0.50
2013-11-19,45.3,37.1,29.7,31.3,28.7,25.3,85,72,54,30.41,30.24,13,1,14,0.50
2013-11-20,45.1,39.0,32.7,41.4,34.2,27.8,95,83,66,30.30,30.03,17,2,18,0.50
2013-11-21,51.6,48.5,44.1,50.7,47.1,41.3,100,95,86,30.27,30.09,11,1,12,0.50
2013-11-22,45.5,37.9,28.6,45.5,36.3,26.8,100,94,85,30.59,30.27,22,6,25,0.50
2013-11-23,28.8,24.2,17.1,27.0,17.8,8.7,94,77,60,30.77,30.53,23,6,26,0.37
2013-11-24,28.9,19.5,13.3,15.3,10.3,6.7,79,68,50,30.77,30.47,9,0,10,0.00
2013-11-25,36.1,31.5,25.3,23.4,19.8,14.0,70,61,55,30.47,30.12,10,1,12,0.00
2013-11-26,36.7,28.6,20.1,28.7,19.2,7.7,79,68,54,30.30,30.06,29,5,32,0.00
2013-11-27,27.5,19.9,14.4,11.8,8.0,4.4,68,60,51,30.74,30.27,20,4,22,0.00
2013-11-28,39.4,27.7,19.0,23.8,15.9,9.7,69,61,52,30.56,30.24,20,2,22,0.00
2013-11-29,39.7,29.2,17.8,25.2,19.3,12.3,80,67,52,30.62,30.41,10,1,11,0.00
2013-11-30,52.9,39.3,29.3,37.2,30.6,24.1,87,72,52,30.41,30.12,9,1,11,0.00
2013-12-1,48.9,39.4,32.5,38.4,32.5,28.7,91,77,60,30.18,30.00,11,1,12,0.00
2013-12-2,48.9,40.5,33.6,41.8,36.2,29.5,99,85,74,30.00,29.68,11,2,12,0.00
2013-12-3,53.2,46.6,37.9,53.0,46.5,37.8,100,100,98,29.76,29.62,11,1,12,0.00
2013-12-4,58.1,49.6,36.3,58.1,49.0,32.8,100,98,84,29.91,29.50,30,4,33,0.00
2013-12-5,36.3,25.3,21.9,32.0,16.6,11.0,88,69,59,30.33,29.91,30,10,33,0.00
2013-12-6,21.9,19.4,12.7,11.3,9.0,2.9,69,63,59,30.62,30.33,19,5,21,0.00
2013-12-7,22.6,14.9,8.4,8.4,3.7,-1.2,68,61,51,30.71,30.56,17,2,18,0.00
2013-12-8,27.7,23.5,15.1,24.9,17.9,5.8,90,79,64,30.56,30.00,13,3,14,0.00
2013-12-9,26.2,20.9,13.6,23.5,14.3,5.4,89,75,60,30.53,30.06,24,9,27,0.00
2013-12-10,29.3,17.9,8.6,14.8,7.8,0.5,76,64,52,30.36,30.12,32,5,36,0.00
2013-12-11,26.1,16.8,5.7,18.4,5.3,-8.1,74,60,51,30.71,30.30,24,6,27,0.00
2013-12-12,34.9,19.4,4.5,19.1,5.6,-9.3,71,54,50,30.68,30.30,18,1,20,0.00
2013-12-13,39.4,30.1,21.2,32.3,22.8,13.3,96,75,54,30.30,30.00,13,0,14,0.00
2013-12-14,34.2,31.1,22.8,33.6,30.1,20.6,100,96,91,30.18,29.91,23,5,25,0.00
2013-12-15,26.8,20.3,15.3,20.8,16.2,11.8,93,84,74,30.21,30.06,24,7,31,0.00
2013-12-16,25.3,21.8,18.3,22.5,18.9,14.5,98,88,80,30.18,30.00,15,4,16,0.00
2013-12-17,35.2,26.7,21.2,32.7,23.4,10.9,100,88,62,30.30,30.06,24,7,27,0.00
2013-12-18,38.7,26.0,16.5,33.3,18.0,8.0,83,71,55,30.30,29.88,13,1,14,0.00
2013-12-19,48.6,42.7,36.9,48.0,40.2,32.7,100,91,80,29.97,29.82,13,2,14,0.00
2013-12-20,55.9,43.1,31.6,55.9,43.1,31.6,100,100,97,29.97,29.71,24,5,27,0.00
2013-12-21,33.8,32.0,30.4,33.8,32.0,30.4,100,100,100,29.97,29.65,14,3,15,0.00
2013-12-22,34.0,30.6,21.0,34.0,30.2,18.8,100,98,91,30.33,29.68,18,3,20,0.00
2013-12-23,21.2,15.4,7.2,19.1,11.3,1.8,92,84,76,30.62,30.33,20,8,22,0.00
2013-12-24,22.6,12.6,2.5,15.0,6.0,-2.8,78,74,65,30.65,30.36,13,2,14,0.00
2013-12-25,32.5,28.6,22.6,30.5,25.0,14.7,92,86,71,30.39,30.18,20,4,22,0.00
2013-12-26,41.4,30.5,21.2,35.0,26.6,18.2,93,85,76,30.39,30.18,16,2,18,0.00
2013-12-27,46.9,36.0,27.5,38.6,31.4,25.1,95,84,69,30.36,30.21,10,1,11,0.00
2013-12-28,53.1,40.8,34.5,40.3,33.9,30.8,89,77,57,30.27,29.97,14,1,15,0.00
2013-12-29,37.4,24.8,7.9,32.4,21.6,2.7,100,88,78,30.36,29.88,33,12,37,0.00
2013-12-30,22.5,12.9,3.4,10.9,4.5,-1.6,79,69,58,30.39,30.18,15,2,16,0.00
2013-12-31,33.6,24.2,15.8,22.1,15.9,9.9,84,71,57,30.39,30.24,13,3,16,0.00
2014-1-1,30.2,23.9,20.7,24.1,20.6,17.1,100,88,78,30.27,30.15,24,6,27,0.00
2014-1-2,20.7,12.6,3.2,20.7,8.7,-2.6,100,84,74,30.53,30.18,22,7,24,0.00